Temperature
16 16 16 17 17 18 20 23 25 25 26 26 26 26 25 24 23 20 19 19 19 19 19 18 18 18 18 17 17 17 17 17 17 17 17 17 16 16 16 16 16 16 16 15 15 15 15 15 15
16 15 16 17 18 18 21 23 24 25 25 25 25 25 25 23 21 20 19 18 18 18 18 18 18 18 17 17 17 17 17 17 16 16 16 16 16 16 16 16 16 16 16 15 15 15 15 15 15
15 15 17 18 18 19 22 24 24 25 25 24 24 25 24 22 20 19 19 18 18 18 18 18 18 17 17 17 17 17 17 16 16 16 16 16 16 16 16 16 16 16 16 15 15 15 15 15 15
14 16 17 18 19 21 23 24 24 24 24 24 24 23 22 21 20 19 19 18 17 17 18 18 17 17 17 17 17 17 16 16 16 16 16 16 16 16 16 16 15 15 15 15 15 15 15 15 15
14 16 17 18 19 21 23 24 24 23 23 24 24 22 20 19 19 19 18 18 17 17 17 17 17 17 17 17 17 16 16 16 16 16 16 16 16 16 15 15 15 15 15 15 15 15 15 15 15
15 17 17 18 20 22 23 24 24 23 23 24 23 22 19 19 19 18 18 17 17 17 17 17 17 16 16 16 16 16 16 16 16 16 16 15 15 15 15 15 15 15 14 14 14 15 15 15 14
15 16 17 19 20 21 23 23 23 23 23 23 23 22 19 18 18 18 17 17 17 16 16 17 16 16 16 16 16 16 16 16 15 15 15 15 15 15 15 15 15 14 14 14 14 15 15 14 14
15 16 17 18 20 21 22 23 23 23 23 23 23 21 18 17 17 17 17 17 16 16 16 16 16 16 16 16 16 16 15 15 15 15 15 15 15 15 15 15 14 14 14 14 14 14 14 14 14
14 15 16 18 19 21 22 22 22 22 22 22 21 20 19 18 17 17 17 16 16 16 16 16 16 16 16 16 15 15 15 15 15 15 15 15 15 15 14 14 14 14 14 14 14 14 14 14 14
14 14 16 19 20 20 21 21 21 21 21 21 19 18 18 17 17 17 16 16 16 15 15 15 15 15 15 15 15 15 15 15 15 15 15 14 14 14 14 14 14 14 14 14 14 14 14 14 13
14 15 17 18 19 19 20 20 20 20 19 20 18 17 17 16 16 16 16 16 15 15 15 15 15 15 15 15 15 15 15 15 15 14 14 14 14 14 14 14 14 14 14 14 14 13 13 13 13
15 16 17 17 17 18 18 19 19 19 19 19 19 18 17 16 16 16 16 16 15 15 15 15 15 15 15 15 15 15 15 15 14 14 14 14 14 14 14 14 14 14 14 13 13 13 13 13 13
14 15 16 17 17 17 18 18 18 18 18 18 18 17 17 16 16 16 16 16 16 15 15 15 15 15 15 15 15 14 14 14 14 14 14 14 14 14 14 14 13 13 13 13 13 13 13 13 13
15 15 16 16 16 16 17 17 17 18 18 18 17 17 16 16 16 16 16 16 15 15 15 15 15 15 15 15 14 14 14 14 14 14 14 14 14 13 13 13 13 13 13 13 13 13 13 13 12
15 14 15 15 16 16 16 15 16 17 17 17 17 17 17 16 16 16 16 16 15 15 15 15 15 15 15 14 14 14 14 14 14 14 14 14 13 13 13 13 13 13 13 13 13 13 12 12 12
14 13 13 15 15 16 15 14 16 17 17 17 17 17 17 17 16 16 16 16 15 15 15 15 15 15 14 14 14 14 14 14 14 14 13 13 13 13 13 13 13 13 13 13 12 12 12 12 12
12 12 12 14 15 15 15 14 16 17 17 17 17 17 17 17 17 16 16 16 15 15 15 15 14 14 14 14 14 14 14 14 14 14 13 13 13 13 13 13 13 13 12 12 12 12 12 12 12
11 12 13 13 15 15 14 14 15 17 17 17 17 17 17 17 17 16 16 16 15 15 15 14 14 14 14 14 14 14 14 14 13 13 13 13 13 13 13 13 12 12 12 12 12 12 12 11 11
13 13 13 14 15 14 14 14 15 16 16 16 17 17 17 17 17 16 16 15 15 15 14 14 14 14 14 14 14 14 13 13 13 13 13 13 13 12 12 12 12 12 12 12 12 12 11 11 11
12 12 13 13 14 14 13 14 15 15 16 16 17 17 17 17 16 16 15 15 15 14 14 14 14 14 14 14 14 13 13 13 13 13 13 13 12 12 12 12 12 12 12 11 11 11 11 11 10
11 12 12 12 13 14 13 13 14 15 16 16 16 17 17 17 16 15 15 14 14 14 14 13 13 14 14 13 13 13 13 13 12 12 12 12 12 12 12 12 12 12 11 11 11 11 11 10 10
10 12 12 12 11 11 12 11 13 14 14 15 16 16 16 16 16 15 15 14 14 13 13 13 13 13 13 13 13 13 13 13 13 12 12 12 12 12 12 11 11 11 11 11 11 10 10 10 10
11 12 12 11 11 11 11 11 12 14 14 14 15 16 16 16 15 15 14 14 13 13 13 13 13 13 13 13 13 13 12 12 12 12 12 12 12 12 11 11 11 11 11 11 10 10 10 10 9
11 11 11 11 10 9 11 11 11 13 14 14 14 15 15 15 15 14 14 13 13 13 13 12 12 12 12 12 12 12 12 12 12 11 11 11 11 11 11 11 11 11 10 10 10 10 9 9 9
10 9 8 8 8 9 12 11 11 13 14 14 14 14 14 14 14 13 13 12 12 12 12 12 12 12 12 12 12 12 12 12 11 11 11 11 11 11 11 11 10 10 10 10 10 9 9 9 9
9 9 8 8 8 10 12 11 11 12 12 13 13 13 13 13 13 12 12 12 11 11 11 11 11 11 11 11 11 11 11 11 11 11 11 11 10 10 10 10 10 10 10 9 9 9 9 9 8
9 9 9 9 9 9 10 11 11 11 11 11 11 11 11 11 11 11 11 11 11 11 11 11 11 11 11 11 10 10 10 10 10 10 10 10 10 10 10 10 10 9 9 9 9 8 8 8 8
8 9 8 8 8 9 10 10 9 10 10 10 10 10 10 10 10 10 10 10 10 10 10 10 10 10 10 10 10 10 10 10 10 10 9 9 9 9 9 9 9 9 9 8 8 8 8 8 7
7 8 8 8 8 8 9 9 10 9 9 9 8 9 9 9 9 9 9 9 9 9 9 9 9 9 9 9 9 9 9 9 9 9 9 9 9 9 9 8 8 8 8 8 8 7 7 7 7
7 7 7 7 7 8 8 8 8 8 8 8 8 8 8 8 8 8 8 8 8 8 8 8 8 8 8 9 9 9 9 9 9 9 9 9 8 8 8 8 8 8 7 7 7 7 7 7 6
Wind_Speed
10 12 8 3 4 6 10 8 6 2 1 2 4 3 2 3 4 8 6 10 16 18 19 19 18 18 18 18 17 17 16 15 15 15 15 14 14 14 14 14 14 14 14 14 14 14 14 14 14
10 9 5 4 5 8 9 10 9 3 3 4 3 2 1 5 9 9 7 13 16 17 19 18 19 19 18 18 18 17 16 15 15 15 14 14 14 13 13 13 13 14 14 14 14 14 13 13 13
10 9 4 5 7 9 7 6 6 3 6 4 2 1 1 5 8 7 9 14 15 15 18 20 20 19 19 18 17 17 16 15 15 15 14 14 14 14 13 13 13 13 13 13 13 13 13 13 12
5 4 5 8 14 11 9 3 3 4 4 3 3 3 4 6 5 9 12 13 14 15 18 20 20 19 19 18 17 16 16 15 15 14 14 14 14 13 13 13 13 13 13 13 13 13 13 12 11
5 4 7 11 16 12 7 3 2 4 6 6 5 3 5 4 10 13 11 12 14 14 17 19 20 19 19 18 17 16 16 15 15 14 14 14 13 13 13 13 13 12 12 12 12 13 12 12 10
4 5 8 13 15 12 9 5 3 5 5 6 6 3 5 6 8 9 10 11 13 15 16 18 19 19 18 18 17 16 15 15 14 14 13 13 13 13 12 12 12 12 12 12 11 11 11 10 9
6 6 11 13 12 11 9 7 6 6 6 6 5 4 6 7 7 9 10 11 13 14 14 15 17 18 18 18 17 16 15 15 14 14 14 13 13 13 12 11 11 11 11 11 11 10 10 9 8
6 5 11 14 13 10 7 5 4 4 4 3 2 3 6 8 7 8 10 10 12 12 12 12 14 15 15 16 17 16 16 15 14 14 14 14 13 12 12 11 11 10 10 10 10 10 9 8 7
5 7 11 12 10 7 4 4 2 3 2 1 2 4 10 13 9 9 10 9 10 11 10 11 11 12 14 14 15 16 15 14 14 13 13 12 11 11 10 10 10 10 9 9 9 8 8 7 6
6 9 12 8 6 6 3 3 3 2 3 3 4 8 13 12 10 10 11 11 10 11 10 9 10 10 12 12 13 13 12 12 12 12 11 9 9 9 9 10 10 9 9 8 7 7 5 4 4
7 9 10 9 6 7 4 3 3 4 5 5 7 11 12 11 11 10 11 12 11 10 10 9 9 10 9 8 10 9 9 9 9 11 10 9 9 10 10 9 8 8 8 6 5 4 3 3 3
10 12 11 8 5 6 6 5 5 7 3 2 5 10 12 13 12 12 11 12 11 11 10 9 9 8 8 8 7 7 6 6 6 8 9 8 5 6 7 6 7 7 6 5 4 3 3 3 3
14 12 11 7 6 6 7 7 7 6 3 2 4 8 10 11 10 10 10 11 11 10 10 9 9 9 7 7 6 6 6 6 7 7 7 7 4 4 4 4 5 5 5 4 3 2 3 3 3
10 11 10 9 8 6 8 9 8 6 4 4 6 8 10 11 11 10 10 11 11 11 10 9 9 9 8 6 5 5 6 6 7 6 6 7 6 4 3 4 4 4 5 5 3 2 3 2 2
9 10 10 11 10 8 7 11 12 8 7 8 8 9 10 10 10 10 11 11 11 11 10 9 9 9 8 7 6 6 6 7 6 6 6 7 6 6 5 3 3 4 5 4 3 3 3 2 2
9 9 10 10 11 9 8 11 10 8 9 10 10 10 10 10 11 9 10 10 11 11 10 10 8 8 8 7 6 6 6 7 6 6 6 6 7 7 5 3 3 5 5 3 2 1 2 1 1
9 10 11 9 11 9 11 10 7 8 10 10 10 10 10 9 10 9 10 11 11 11 11 10 9 8 8 7 6 6 6 6 6 6 6 6 6 7 6 4 4 5 4 2 1 1 2 1 1
10 10 11 11 9 10 12 11 8 9 10 11 10 10 10 10 10 10 9 10 11 11 11 11 10 9 8 6 5 5 5 4 5 5 5 6 6 6 6 4 4 5 2 2 2 2 2 2 1
9 12 12 10 7 9 12 12 11 10 10 11 11 10 10 10 9 8 9 10 10 10 11 11 10 9 8 6 6 5 5 4 3 4 6 6 6 6 5 3 3 3 3 3 3 2 2 1 1
11 11 10 5 5 7 9 12 11 11 11 10 10 10 10 10 9 9 9 9 10 11 11 11 10 10 9 6 5 5 5 4 3 4 5 6 6 5 5 3 2 2 2 3 3 3 2 1 1
11 10 8 6 4 7 7 9 12 11 11 10 10 9 8 9 10 10 9 9 9 10 10 10 9 9 8 8 6 6 4 3 3 3 3 4 5 5 5 4 3 2 2 3 3 3 3 2 1
10 7 7 6 4 4 6 5 8 10 11 11 12 10 9 8 8 9 9 9 9 9 8 8 9 9 8 8 8 9 6 5 5 4 4 3 5 5 5 5 4 3 2 2 3 3 2 3 2
6 4 6 6 5 5 7 6 6 9 10 11 10 10 9 8 8 9 9 8 8 8 7 7 8 8 8 8 8 8 6 5 5 5 6 5 4 5 5 4 3 3 2 2 2 2 2 2 3
3 3 4 4 3 7 10 8 5 5 9 9 8 8 8 8 8 8 7 7 7 7 7 7 8 7 8 8 8 7 7 7 7 6 5 4 3 3 4 4 3 3 2 2 2 2 2 2 2
3 3 2 3 5 7 7 6 5 2 0 4 5 6 5 6 6 7 8 8 8 8 7 7 8 7 7 7 7 7 7 7 7 7 6 5 3 3 3 3 3 2 2 2 2 2 2 2 3
6 6 3 3 5 3 5 6 2 2 5 5 5 4 4 5 5 5 6 7 8 8 8 8 8 7 6 6 6 5 6 5 4 5 5 5 4 3 4 3 3 2 2 2 2 2 3 2 3
4 6 3 3 3 3 4 3 0 4 5 5 5 5 4 4 4 4 5 5 6 7 7 8 7 6 6 6 6 5 5 5 5 4 5 4 3 3 4 4 3 2 2 2 2 2 3 3 2
3 3 1 3 3 3 4 5 3 0 2 3 3 3 3 4 4 4 4 4 5 6 6 6 6 6 5 5 5 5 4 5 5 5 5 4 3 3 3 4 3 3 2 2 2 2 2 3 3
2 3 3 3 3 2 2 1 4 2 3 3 3 3 4 4 3 3 3 4 5 5 6 5 5 5 5 5 5 5 5 4 4 4 4 4 3 3 3 3 3 3 3 3 3 3 2 3 3
1 2 3 3 4 3 1 0 5 6 5 4 4 4 4 4 4 4 4 5 5 5 5 5 5 5 5 5 6 5 5 5 4 4 4 4 3 3 2 2 2 2 2 2 3 3 3 3 3
Wind_Direction
279 264 247 244 236 231 239 240 251 213 176 17 12 352 15 23 46 113 151 127 124 129 135 138 135 134 133 130 128 126 123 119 116 113 109 106 103 99 97 94 93 91 90 89 88 88 86 85 84
276 261 244 233 233 229 233 226 243 224 101 68 17 337 34 70 81 109 130 122 127 129 136 139 135 132 131 131 130 128 125 122 119 116 112 108 105 102 99 97 95 93 91 89 89 89 87 86 84
267 255 233 225 229 230 238 208 201 151 111 129 153 320 16 75 104 118 124 128 128 129 134 135 136 134 132 132 131 130 128 125 122 118 115 111 107 103 100 99 97 95 93 91 90 91 88 87 86
246 227 240 237 237 235 248 263 114 132 131 166 163 132 88 39 71 112 128 133 128 129 129 135 137 136 134 133 132 130 130 128 125 122 119 114 109 106 101 99 99 98 96 94 92 91 89 86 84
239 230 226 235 240 243 244 261 135 172 169 185 194 159 98 65 87 116 135 132 130 129 128 137 137 137 136 136 134 132 132 132 129 125 122 118 113 109 104 102 102 101 99 96 95 92 90 87 82
224 232 228 230 236 234 232 228 212 211 194 184 189 181 107 116 111 128 135 131 127 127 130 137 138 138 139 139 138 136 135 132 130 127 125 121 116 112 108 105 105 102 99 97 97 96 94 90 83
233 236 241 243 238 228 224 213 205 217 208 194 183 158 131 130 129 138 134 127 123 125 132 138 140 140 140 140 140 139 136 133 131 128 126 122 120 117 113 110 109 106 103 99 98 99 96 91 84
250 259 245 246 246 233 214 218 212 240 219 183 194 165 145 142 143 138 129 122 122 128 134 140 142 142 141 139 140 140 139 136 133 131 129 127 123 121 119 115 112 110 108 106 104 101 97 94 87
254 244 239 236 245 247 201 202 215 282 227 167 53 45 118 132 144 133 127 123 127 134 139 145 143 142 141 141 143 141 141 141 138 136 137 137 135 131 126 122 121 119 117 115 113 112 111 106 96
218 232 238 251 271 282 245 196 181 221 213 181 99 89 114 135 146 148 148 146 145 146 146 145 143 140 140 142 145 149 149 149 151 151 154 152 141 136 131 131 130 128 126 125 128 133 137 133 124
218 237 251 268 298 309 287 240 199 217 220 203 164 147 145 151 159 163 161 156 155 151 146 146 143 142 140 140 146 149 151 156 159 157 157 150 141 135 132 133 134 137 139 138 144 150 147 129 111
235 243 253 265 287 293 287 269 229 238 259 273 163 157 158 163 172 174 171 164 157 152 149 147 143 143 143 140 142 142 142 147 146 153 158 150 138 134 138 140 150 152 149 141 143 143 130 108 99
237 243 248 258 266 269 275 265 257 242 258 321 147 161 171 175 178 178 173 164 158 156 152 153 149 145 142 138 143 141 139 141 142 144 152 142 130 133 131 135 138 138 136 135 136 131 104 82 76
240 247 250 253 252 251 252 253 249 238 216 211 188 190 184 185 182 179 174 170 163 161 157 153 152 148 144 142 141 135 131 130 132 136 142 140 135 128 127 121 123 125 130 133 132 115 106 95 79
245 246 245 239 238 237 246 247 236 232 217 211 204 205 195 189 185 185 179 172 165 162 159 156 156 151 148 145 141 132 132 129 125 135 144 138 131 127 120 116 117 116 122 122 113 93 85 88 83
235 232 233 224 222 224 224 243 227 216 217 215 208 206 200 193 190 188 180 169 161 158 157 155 158 157 149 145 141 135 133 130 130 137 141 142 142 137 121 116 118 120 120 107 104 114 102 95 102
214 221 228 228 212 215 223 242 226 212 214 219 213 204 202 197 190 187 178 163 159 158 156 155 158 159 152 145 138 133 130 130 132 132 132 137 137 137 125 125 127 127 121 124 128 122 126 116 96
207 219 226 228 210 216 229 242 236 222 214 219 219 206 201 203 196 181 173 162 157 156 156 157 159 157 148 144 136 124 123 127 126 126 131 133 134 136 129 127 131 131 129 130 127 119 91 104 115
238 227 231 231 220 217 231 239 236 227 216 216 215 209 202 202 192 172 166 161 156 157 158 161 161 160 155 154 151 144 145 140 134 128 132 137 136 138 132 128 135 133 146 154 147 130 113 105 103
252 245 239 238 228 225 237 244 237 227 220 215 217 216 204 192 180 172 166 163 165 164 163 164 164 161 159 158 156 148 139 139 140 130 131 139 139 140 141 127 136 144 148 145 148 135 136 150 128
244 240 237 236 254 247 247 252 235 223 221 216 217 223 207 188 176 172 166 165 163 163 165 167 161 158 154 149 139 132 124 127 136 147 153 144 145 144 137 134 129 141 155 167 168 156 153 172 202
236 239 252 236 217 234 210 252 236 209 212 212 206 210 208 194 175 169 168 168 167 161 157 157 157 155 154 153 154 157 162 166 171 163 157 143 138 134 136 137 140 148 155 166 176 169 168 161 188
238 248 260 252 244 252 219 232 253 206 206 211 205 198 196 192 178 170 168 164 158 152 156 157 156 156 156 157 160 163 164 161 154 153 152 151 147 140 139 140 139 151 165 175 177 177 175 177 180
251 233 249 246 240 240 221 213 263 225 209 202 199 185 182 178 169 163 156 151 150 145 149 153 154 157 159 162 167 168 166 162 156 155 154 154 154 154 146 146 142 151 159 179 186 188 186 190 181
214 178 184 199 211 233 206 207 239 305 2 166 170 165 159 151 149 150 150 154 153 149 150 152 150 153 160 165 169 168 165 163 162 157 156 156 158 161 170 156 153 150 153 164 164 187 198 196 189
214 211 202 208 212 227 201 213 222 45 35 58 89 102 113 118 124 132 148 152 153 153 152 153 153 154 157 160 161 158 153 156 157 152 151 154 158 159 150 146 141 145 147 161 163 197 205 199 201
216 223 265 292 266 225 211 209 64 45 45 48 60 80 100 115 109 126 136 145 150 152 153 154 153 151 154 151 145 146 144 143 143 139 135 138 143 148 145 149 155 153 155 174 179 198 210 204 204
255 255 240 229 238 235 211 199 216 169 75 69 66 86 95 103 112 121 129 140 143 142 145 146 147 147 144 138 138 138 133 134 131 128 133 137 142 144 151 158 164 170 175 185 197 206 213 203 212
202 217 237 241 259 245 217 174 16 89 96 93 68 64 81 78 80 101 107 112 116 122 129 136 140 136 134 133 130 125 122 121 122 127 131 133 131 134 141 159 164 174 187 190 201 213 212 214 219
233 235 226 219 250 252 242 288 17 36 50 67 60 51 72 77 78 81 85 85 92 101 109 116 119 122 128 130 126 123 121 121 125 129 127 128 131 132 140 151 160 177 190 193 199 217 220 217 218
Height
1494 1496 1499 1502 1503 1502 1496 1482 1473 1471 1472 1474 1475 1476 1478 1483 1487 1499 1499 1499 1500 1501 1505 1509 1512 1515 1517 1520 1522 1524 1526 1528 1529 1530 1531 1532 1533 1534 1535 1536 1536 1537 1538 1539 1540 1540 1541 1542 1542
1493 1496 1500 1501 1501 1501 1490 1478 1474 1472 1473 1476 1478 1479 1480 1486 1489 1493 1497 1499 1500 1502 1505 1509 1512 1515 1518 1520 1523 1525 1527 1528 1530 1531 1533 1534 1535 1535 1536 1537 1538 1538 1539 1540 1541 1542 1542 1543 1544
1493 1496 1499 1496 1493 1491 1482 1470 1470 1471 1474 1477 1480 1481 1484 1488 1491 1493 1496 1498 1501 1503 1506 1509 1512 1515 1518 1521 1523 1525 1527 1529 1531 1532 1533 1535 1536 1537 1537 1538 1539 1540 1540 1541 1542 1543 1543 1544 1545
1494 1496 1496 1492 1486 1477 1473 1468 1468 1471 1475 1478 1480 1483 1486 1490 1492 1493 1496 1499 1501 1503 1506 1509 1513 1516 1519 1521 1524 1526 1528 1530 1531 1533 1534 1536 1537 1538 1538 1539 1540 1541 1542 1542 1543 1544 1545 1545 1546
1493 1494 1492 1488 1481 1473 1469 1469 1470 1472 1475 1478 1480 1483 1487 1490 1491 1493 1497 1500 1501 1504 1506 1510 1513 1516 1519 1522 1524 1526 1528 1530 1532 1534 1535 1536 1538 1539 1539 1540 1541 1542 1543 1543 1544 1545 1546 1546 1547
1492 1488 1488 1484 1476 1470 1468 1469 1470 1472 1474 1477 1479 1482 1488 1490 1492 1494 1497 1500 1502 1504 1506 1510 1514 1516 1519 1522 1525 1527 1529 1531 1533 1534 1536 1537 1538 1539 1540 1541 1542 1543 1544 1544 1545 1546 1546 1547 1548
1489 1485 1482 1476 1473 1469 1467 1468 1470 1472 1474 1476 1478 1482 1487 1489 1491 1494 1498 1501 1503 1504 1507 1510 1514 1517 1519 1522 1525 1527 1529 1531 1533 1535 1536 1538 1539 1540 1541 1542 1543 1543 1544 1545 1546 1547 1547 1548 1549
1485 1482 1477 1474 1471 1467 1465 1466 1468 1471 1473 1476 1478 1480 1484 1488 1490 1494 1498 1501 1503 1505 1507 1510 1513 1516 1519 1522 1525 1527 1529 1531 1533 1535 1537 1538 1539 1540 1541 1542 1543 1544 1545 1546 1546 1547 1548 1549 1549
1483 1483 1476 1471 1469 1465 1464 1466 1469 1471 1473 1475 1477 1479 1481 1485 1489 1493 1497 1500 1503 1505 1508 1510 1513 1516 1518 1521 1524 1527 1529 1531 1533 1535 1537 1538 1539 1540 1541 1543 1544 1544 1545 1546 1547 1548 1548 1549 1550
1480 1479 1471 1467 1465 1464 1464 1466 1469 1472 1473 1475 1478 1480 1481 1484 1488 1491 1494 1498 1501 1504 1507 1510 1513 1515 1518 1521 1524 1526 1529 1531 1533 1535 1536 1538 1539 1540 1542 1543 1544 1545 1545 1546 1547 1548 1549 1550 1550
1474 1472 1468 1467 1466 1466 1466 1467 1469 1472 1474 1474 1477 1479 1481 1484 1488 1491 1494 1497 1500 1503 1507 1510 1512 1515 1517 1520 1523 1525 1528 1530 1532 1534 1536 1537 1539 1540 1541 1542 1544 1544 1545 1546 1547 1548 1549 1550 1550
1471 1469 1468 1467 1467 1467 1468 1468 1469 1471 1472 1473 1475 1477 1480 1483 1486 1489 1493 1496 1500 1503 1506 1509 1512 1514 1517 1519 1522 1525 1527 1529 1531 1533 1535 1537 1539 1540 1541 1542 1543 1544 1545 1546 1547 1548 1549 1549 1550
1468 1467 1467 1467 1468 1468 1468 1469 1469 1469 1472 1473 1473 1476 1478 1481 1485 1489 1492 1495 1498 1501 1504 1507 1510 1513 1516 1519 1521 1524 1526 1528 1531 1533 1534 1536 1538 1539 1540 1541 1543 1544 1545 1546 1547 1547 1548 1549 1549
1466 1466 1466 1466 1467 1467 1468 1468 1469 1468 1471 1473 1473 1475 1477 1480 1483 1487 1490 1493 1496 1499 1502 1506 1509 1512 1515 1517 1520 1523 1525 1527 1529 1531 1533 1535 1537 1538 1539 1540 1541 1543 1544 1545 1546 1547 1547 1548 1549
1465 1466 1465 1464 1465 1466 1468 1468 1466 1467 1469 1471 1472 1474 1476 1478 1481 1484 1487 1490 1493 1497 1500 1504 1507 1510 1513 1516 1518 1521 1524 1526 1528 1530 1532 1534 1536 1537 1538 1539 1540 1542 1543 1544 1545 1545 1546 1547 1547
1463 1465 1467 1461 1462 1464 1469 1468 1463 1464 1466 1467 1470 1471 1473 1476 1479 1482 1485 1488 1491 1494 1498 1501 1504 1508 1511 1514 1517 1519 1522 1524 1527 1529 1531 1532 1534 1535 1536 1538 1539 1540 1541 1542 1543 1544 1544 1545 1546
1462 1464 1463 1460 1458 1460 1463 1463 1459 1460 1462 1463 1466 1468 1470 1473 1476 1479 1482 1485 1488 1492 1495 1498 1502 1505 1508 1511 1515 1517 1520 1523 1525 1527 1529 1530 1532 1534 1535 1536 1537 1538 1539 1540 1541 1542 1543 1543 1544
1460 1460 1458 1458 1454 1457 1460 1459 1457 1457 1458 1460 1462 1464 1467 1469 1472 1475 1479 1482 1486 1489 1492 1496 1499 1502 1505 1509 1512 1515 1518 1520 1522 1525 1526 1528 1530 1532 1533 1534 1535 1536 1538 1538 1539 1540 1541 1541 1542
1453 1454 1455 1453 1450 1454 1456 1456 1454 1453 1454 1456 1457 1460 1462 1466 1469 1472 1475 1479 1482 1486 1489 1492 1496 1499 1502 1505 1508 1511 1514 1517 1520 1522 1524 1526 1527 1529 1531 1532 1533 1534 1535 1536 1537 1538 1539 1539 1540
1453 1453 1453 1451 1449 1451 1453 1452 1449 1449 1450 1451 1454 1456 1458 1462 1465 1468 1472 1475 1479 1482 1486 1489 1492 1495 1499 1502 1505 1509 1512 1514 1517 1519 1522 1523 1525 1527 1528 1529 1531 1532 1533 1534 1535 1536 1536 1537 1538
1452 1452 1452 1452 1452 1450 1453 1453 1446 1444 1445 1448 1450 1452 1455 1457 1460 1464 1468 1471 1475 1479 1482 1486 1489 1492 1496 1499 1503 1506 1509 1511 1514 1516 1518 1520 1522 1524 1525 1527 1528 1529 1530 1531 1532 1533 1534 1534 1535
1453 1448 1449 1451 1456 1458 1455 1460 1444 1440 1442 1442 1445 1448 1451 1454 1457 1460 1464 1468 1471 1475 1479 1482 1485 1489 1492 1496 1499 1502 1504 1507 1510 1512 1515 1517 1519 1521 1522 1524 1525 1526 1527 1528 1529 1530 1531 1532 1532
1450 1448 1450 1451 1455 1458 1453 1459 1446 1436 1439 1439 1440 1443 1447 1450 1454 1457 1461 1464 1468 1472 1475 1479 1483 1486 1489 1492 1496 1499 1502 1504 1507 1510 1512 1514 1516 1518 1519 1520 1522 1523 1524 1525 1526 1527 1528 1528 1529
1448 1449 1450 1451 1457 1463 1450 1453 1448 1437 1434 1435 1437 1439 1443 1447 1451 1454 1458 1461 1465 1469 1472 1476 1479 1482 1486 1489 1492 1495 1498 1501 1503 1506 1508 1510 1512 1514 1516 1517 1518 1519 1521 1522 1523 1524 1525 1525 1526
1450 1455 1462 1462 1463 1457 1441 1445 1444 1434 1430 1431 1434 1437 1441 1445 1448 1452 1455 1458 1462 1465 1469 1472 1475 1479 1482 1486 1489 1492 1494 1497 1500 1502 1504 1506 1508 1510 1512 1513 1515 1516 1517 1518 1519 1520 1521 1522 1522
1450 1452 1459 1461 1458 1449 1439 1444 1440 1434 1432 1431 1433 1436 1439 1443 1446 1449 1453 1456 1459 1462 1465 1469 1472 1476 1479 1482 1485 1489 1491 1494 1497 1499 1501 1503 1505 1507 1508 1510 1511 1513 1514 1515 1515 1516 1517 1518 1518
1450 1451 1449 1453 1449 1450 1444 1439 1437 1434 1433 1434 1435 1437 1440 1443 1446 1449 1451 1454 1457 1460 1463 1466 1469 1473 1476 1479 1482 1485 1488 1491 1493 1496 1498 1500 1502 1504 1505 1507 1508 1509 1510 1511 1512 1512 1513 1514 1514
1450 1450 1453 1456 1456 1451 1443 1442 1445 1440 1439 1439 1439 1440 1442 1443 1446 1448 1450 1453 1455 1458 1461 1464 1467 1470 1473 1477 1479 1482 1485 1488 1490 1493 1495 1497 1499 1501 1502 1503 1504 1505 1506 1507 1508 1508 1509 1510 1510
1453 1454 1454 1454 1451 1451 1449 1450 1441 1440 1440 1441 1442 1442 1443 1444 1446 1448 1450 1452 1454 1456 1459 1462 1465 1468 1471 1474 1477 1480 1482 1485 1488 1490 1492 1494 1496 1497 1499 1500 1501 1502 1502 1503 1504 1504 1505 1505 1505
1452 1453 1454 1458 1454 1449 1450 1455 1444 1442 1441 1442 1443 1444 1444 1445 1446 1448 1449 1451 1453 1455 1458 1460 1463 1466 1469 1471 1474 1477 1480 1482 1485 1487 1489 1491 1493 1494 1495 1497 1498 1498 1499 1499 1500 1500 1501 1501 1501